SCP
0 0 0 0 0 0 0 0 0 0 0 0 0 0 0 0 0 0 0 0 0 0 0 0 0 0 0 0 0 0 0 0 0 0 0 0 0 0 0 0 0 0 0
0 0 0 0 0 0 0 0 0 0 0 0 0 0 0 0 0 0 0 0 0 0 0 0 0 0 0 0 0 0 0 0 0 0 0 0 0 0 0 0 0 0 0
0 0 0 0 0 0 0 0 0 0 0 0 0 0 0 0 0 0 0 0 0 0 0 0 0 0 0 0 0 0 0 0 0 0 0 0 0 0 0 0 0 0 0
0 0 0 0 0 0 0 0 0 0 0 0 0 0 0 0 0 0 0 0 0 0 0 0 0 0 0 0 0 0 0 0 0 0 0 0 0 0 0 0 0 0 0
0 0 0 0 0 0 0 0 0 0 0 0 0 0 0 0 0 0 0 0 0 0 0 0 0 0 0 0 0 0 0 0 0 0 0 0 0 0 0 0 0 0 0
0 0 0 0 0 0 0 0 0 0 0 0 0 0 0 0 0 0 0 0 0 0 0 0 0 0 0 0 0 0 0 0 0 0 0 0 0 0 0 0 0 0 0
0 0 0 0 0 0 0 0 0 0 0 0 0 0 0 0 0 0 0 0 0 0 0 0 0 0 0 0 0 0 0 0 0 0 0 0 0 0 0 0 0 0 0
0 0 0 0 0 0 0 0 0 0 0 0 0 0 0 0 0 0 0 0 0 0 0 0 0 0 0 0 0 0 0 0 0 0 0 0 0 0 0 0 0 0 0
0 0 0 0 0 0 0 0 0 0 0 0 0 0 0 0 0 0 0 0 0 0 0 0 0 0 0 0 0 0 0 0 0 0 0 0 0 0 0 0 0 0 0
0 0 0 0 0 0 0 0 0 0 0 0 0 0 0 0 0 0 0 0 0 0 0 0 0 0 0 0 0 0 0 0 0 0 0 0 0 0 0 0 0 0 0
0 0 0 0 0 0 0 0 0 0 0 0 0 0 0 0 0 0 0 0 0 0 0 0 0 0 0 0 0 0 0 0 0 0 0 0 0 0 0 0 0 0 0
0 0 0 0 0 0 0 0 0 0 0 0 0 0 0 0 0 0 0 0 0 0 0 0 0 0 0 0 0 0 0 0 0 0 0 0 0 0 0 0 0 0 0
0 0 0 0 0 0 0 0 0 0 0 0 0 0 0 0 0 0 0 0 0 0 0 0 0 0 0 0 0 0 0 0 0 0 0 0 0 0 0 0 0 0 0
0 0 0 -0 -0 -0 -0 0 -0 0 0 0 -0 -0 -0 0 0 0 0 0 0 0 0 0 0 0 0 0 0 0 0 0 0 0 0 0 0 0 0 0 0 0 0
-0 -0 -0 -0 -0 0 0 0 0 0 0 0 0 -0 -0 -0 0 0 0 0 0 0 0 0 0 0 0 0 0 0 0 0 0 0 0 0 0 0 0 0 0 0 0
0 0 0 0 0 0 0 0 0 0 0 0 0 0 -0 -0 0 0 0 0 0 0 0 0 0 0 0 0 0 0 0 0 0 0 0 0 0 0 0 0 0 0 0
0 0 0 0 0 0 0 0 0 0 0 0 0 0 0 0 0 0 0 0 0 0 0 0 0 0 0 0 0 0 0 0 0 0 0 0 0 0 0 0 0 0 0
0 0 0 0 0 0 0 0 0 0 0 0 0 0 0 0 0 0 0 0 0 0 0 0 0 0 0 0 0 0 0 0 0 0 0 0 0 0 0 0 0 0 0
0 0 0 0 0 0 0 0 0 0 0 0 0 0 0 0 0 0 0 0 0 0 0 0 0 0 0 0 0 0 0 0 0 0 0 0 0 0 0 0 0 0 0
0 0 0 0 0 0 0 0 0 0 0 0 0 0 0 0 0 0 0 0 0 0 0 0 -0 -0 -0 0 0 0 0 0 0 0 0 0 0 0 0 0 0 0 0
0 0 0 0 0 0 0 0 0 0 0 0 0 0 0 0 0 0 0 0 0 0 0 0 0 -0 -0 -0 0 0 0 0 0 0 0 0 0 0 0 0 0 0 0
0 0 0 0 0 0 0 -0 -0 0 0 0 0 0 0 0 0 0 0 0 0 0 0 0 0 0 0 0 0 0 0 0 0 0 0 0 0 0 0 0 0 0 0
0 0 0 0 0 0 -0 0 0 0 0 0 0 0 0 0 0 0 0 0 0 0 0 0 0 0 0 0 0 0 0 0 0 0 0 0 0 0 0 0 0 0 0
0 0 0 0 0 0 0 0 0 0 0 0 0 0 0 0 0 0 0 0 0 0 0 0 0 0 0 0 0 0 0 0 0 0 0 0 0 0 0 0 0 0 0
0 0 0 0 0 0 0 0 0 0 0 0 0 0 0 0 0 0 0 0 0 0 0 0 0 0 0 0 0 0 0 0 0 0 0 0 0 0 0 0 0 0 0
0 0 0 0 0 0 0 0 0 0 0 0 0 0 0 0 0 0 0 0 0 0 0 0 0 0 0 0 0 0 0 0 0 0 0 0 0 0 0 0 0 0 0
Wind_Speed_500mb
43 42 46 46 48 48 56 60 60 61 68 72 74 79 77 72 71 70 69 68 64 62 63 62 61 60 59 60 60 65 69 68 66 59 60 62 63 67 66 64 66 67 66
29 22 18 35 46 43 45 51 57 61 64 70 73 79 78 79 74 73 73 73 71 71 69 69 69 67 69 66 66 72 73 74 75 74 70 59 71 80 75 77 76 72 75
15 10 6 2 10 30 38 41 44 55 65 69 75 80 84 85 83 82 81 81 79 78 77 76 73 74 75 80 77 77 80 81 79 84 74 27 40 55 62 73 84 85 85
31 29 27 27 25 17 6 21 33 40 47 60 75 79 82 85 78 79 79 82 83 83 83 82 81 79 77 77 78 79 84 90 88 88 91 91 97 57 51 60 62 81 89
44 43 39 36 33 28 23 20 11 9 22 37 50 64 75 81 82 82 81 79 78 77 81 81 79 81 79 81 82 84 89 92 93 91 94 97 99 104 96 70 71 76 76
64 66 62 58 59 54 49 41 32 22 15 11 17 32 45 56 67 74 78 78 77 75 71 69 73 78 81 84 89 89 92 90 91 107 93 100 96 98 105 106 105 120 105
57 58 54 51 49 50 50 51 50 46 38 26 17 17 23 33 45 53 61 66 69 72 71 67 68 75 78 78 80 85 88 91 95 97 112 108 104 93 110 91 91 100 94
45 44 44 42 42 39 37 38 39 38 37 37 34 27 23 28 35 42 48 54 59 61 60 62 63 66 70 74 78 87 86 89 93 96 101 102 111 107 108 111 93 94 96
36 36 35 35 35 35 36 37 34 32 32 30 30 29 26 23 24 28 36 42 45 49 51 53 57 59 63 67 71 80 88 92 95 98 97 102 106 104 107 107 106 105 82
31 30 26 26 28 28 28 27 30 32 31 30 30 32 32 31 27 24 23 28 32 37 41 45 50 53 57 61 67 73 79 86 92 96 97 100 100 102 101 106 105 105 111
22 24 25 27 28 26 25 24 24 25 27 29 32 33 34 36 38 39 40 42 43 44 46 48 50 53 56 59 64 72 77 84 87 91 96 100 98 100 98 95 100 106 102
17 18 20 24 28 31 31 33 32 34 38 39 39 40 41 43 45 47 49 52 54 54 56 59 62 64 66 66 69 72 76 81 86 88 90 95 91 91 88 95 104 100 100
16 18 20 25 27 29 31 35 39 44 48 52 54 54 54 51 48 47 50 56 63 66 68 70 72 73 71 73 75 78 81 83 84 84 88 87 84 88 88 91 95 97 92
16 18 21 25 29 33 37 41 46 49 52 54 56 58 59 58 57 55 54 55 56 61 65 70 75 76 78 79 78 79 80 82 84 84 84 83 82 85 84 84 85 86 90
15 19 22 25 28 32 37 43 48 53 55 56 58 61 63 63 63 61 58 55 56 58 59 61 63 69 75 78 79 79 81 82 83 83 82 80 80 82 78 79 80 83 89
18 21 26 33 42 47 48 47 49 52 57 60 63 66 69 71 71 72 72 70 65 63 64 63 64 67 68 69 71 74 78 80 82 83 80 77 75 74 73 75 76 84 81
16 22 28 31 34 38 43 46 50 54 57 61 64 66 70 73 75 78 78 76 75 74 72 68 68 70 67 65 66 69 74 78 79 78 77 77 76 71 72 73 74 81 81
12 17 22 24 29 35 40 44 48 53 58 63 67 71 76 78 80 82 83 82 82 78 76 77 75 75 75 76 73 65 66 72 77 76 74 72 73 69 63 66 72 74 76
11 17 21 26 30 38 42 46 48 52 58 62 65 69 74 78 80 81 82 82 84 83 79 75 76 76 74 69 71 72 69 68 69 67 65 68 69 67 60 67 68 67 66
18 24 29 34 40 46 54 57 59 61 64 67 70 72 74 77 80 81 81 78 76 79 80 84 80 77 77 70 66 62 61 67 68 65 61 60 62 63 58 57 55 54 51
27 34 40 46 52 57 62 63 64 65 69 72 75 75 77 79 80 82 80 78 77 78 78 79 77 74 69 68 60 55 56 57 61 60 56 52 52 53 47 38 41 38 34
36 44 53 59 61 61 65 70 71 71 74 75 77 76 76 78 78 78 79 80 82 82 81 79 77 69 64 64 60 48 42 45 52 49 47 43 41 37 29 22 32 30 31
45 52 60 69 71 69 68 72 71 74 77 79 80 78 78 76 75 75 78 81 80 78 80 78 78 74 61 54 50 46 43 42 40 32 30 33 29 24 21 18 21 22 26
57 63 69 74 79 74 72 71 75 78 82 85 85 82 82 81 79 75 73 76 76 75 73 70 68 61 52 45 41 37 32 22 16 17 25 25 17 12 10 11 14 17 18
63 67 71 76 79 80 83 84 82 84 88 89 87 86 82 80 81 82 75 71 67 64 63 56 49 44 35 31 24 18 10 7 11 20 17 7 3 7 7 11 11 15 13
65 71 76 79 79 79 80 80 79 83 85 88 87 84 82 80 79 78 75 60 57 49 36 33 30 26 26 19 7 7 8 8 13 14 13 13 14 9 7 11 6 5 6
Wind_Direction_500mb
281 275 260 250 249 250 252 251 252 250 247 247 247 247 249 252 255 258 262 265 264 261 259 261 259 256 258 261 262 258 258 259 257 257 257 256 256 255 257 260 259 256 255
300 295 275 243 243 247 248 250 250 252 252 250 252 251 254 256 259 261 263 265 267 266 264 262 262 263 262 260 263 261 264 264 258 257 252 249 253 256 258 258 259 262 260
18 55 64 95 228 236 243 247 250 249 252 253 252 253 253 256 258 258 260 262 264 266 266 265 265 265 264 262 264 264 263 262 261 258 255 252 251 258 263 264 258 257 255
65 73 70 66 58 48 299 258 254 252 253 252 253 255 257 258 264 266 268 267 267 268 267 268 267 266 265 267 269 268 269 262 261 255 255 262 258 261 270 265 266 260 255
71 70 68 64 58 53 48 45 28 294 267 259 257 257 259 263 266 268 270 271 272 272 270 271 273 273 273 272 270 270 268 266 261 266 264 258 257 258 257 265 266 260 263
80 79 77 74 69 65 60 54 48 42 25 340 288 272 266 266 268 270 272 275 276 276 274 271 272 273 273 271 271 270 270 272 268 275 262 262 264 265 261 261 279 266 269
71 68 64 63 62 60 58 56 52 48 42 33 10 324 292 275 273 273 274 275 277 277 278 277 273 270 271 271 271 272 273 273 272 272 266 266 273 274 267 262 282 268 277
66 60 55 51 51 45 43 41 39 39 36 32 25 8 336 308 293 286 282 279 278 279 278 277 273 271 271 270 268 268 269 269 270 269 272 272 273 269 273 265 274 267 275
62 59 53 41 33 26 20 14 17 17 14 16 14 11 1 345 322 301 290 288 287 287 283 278 275 271 268 266 265 263 265 267 269 270 271 272 272 272 274 273 274 269 270
64 59 44 33 24 13 13 11 12 8 6 2 355 350 347 343 334 325 315 306 304 298 292 286 282 277 273 270 268 266 265 265 267 269 270 271 271 274 273 277 276 272 271
53 42 35 30 31 29 24 22 15 8 2 358 353 344 337 332 329 324 315 307 303 301 299 297 292 287 282 277 273 271 271 269 269 268 270 271 271 271 274 276 275 272 270
61 45 39 39 33 31 29 27 25 17 15 9 2 353 342 334 327 322 318 312 307 301 298 296 295 294 293 291 287 283 278 274 273 274 273 272 274 275 274 275 275 272 275
74 59 41 30 21 16 15 12 7 2 357 352 347 343 339 335 330 321 312 307 305 304 302 299 297 294 292 290 290 288 284 279 276 273 272 271 272 271 270 271 272 274 277
64 46 31 20 9 1 357 355 353 350 346 344 341 338 338 338 335 330 324 317 309 304 301 300 298 297 295 293 291 288 286 283 280 278 275 275 272 272 273 273 273 274 273
45 24 12 3 354 347 345 343 342 341 338 337 335 333 331 330 329 328 326 322 317 311 307 305 302 300 297 295 293 290 288 284 282 280 279 277 275 275 275 274 273 272 274
31 14 4 355 353 351 346 342 336 333 331 329 328 326 325 325 325 323 321 321 321 318 313 309 306 303 300 299 295 290 286 284 281 279 278 277 277 275 274 273 273 272 271
17 3 0 355 348 341 337 337 333 330 328 326 325 324 322 321 319 318 318 318 316 314 312 311 311 309 307 302 298 294 287 283 280 279 279 277 276 275 275 273 270 269 269
17 1 351 343 336 331 329 329 328 326 323 321 319 320 319 318 317 316 315 315 314 314 313 311 308 304 304 305 303 296 288 284 281 280 279 278 281 281 279 275 269 268 269
351 347 341 338 335 331 327 325 323 321 319 317 317 317 317 316 316 316 316 314 312 312 312 311 310 310 309 306 303 299 292 287 285 284 282 282 282 282 281 276 272 270 269
312 316 321 325 328 327 325 322 320 318 314 312 310 310 311 311 311 311 311 312 311 310 312 313 314 312 310 308 303 297 293 292 290 288 286 285 283 281 277 275 273 270 271
307 314 317 320 322 321 318 315 313 313 310 308 306 306 308 309 310 308 308 309 308 308 308 307 309 311 312 309 306 302 297 294 290 292 295 288 282 280 278 274 267 267 273
308 312 312 313 316 318 316 316 316 313 311 310 309 308 305 305 308 308 307 308 308 307 307 307 307 310 312 310 307 302 296 291 289 294 292 291 286 277 270 258 253 259 265
307 307 308 309 311 315 314 312 314 311 310 311 310 308 305 303 303 303 304 306 308 308 308 310 310 310 311 309 304 305 300 292 287 289 291 297 288 274 248 243 246 243 241
305 307 309 310 311 314 312 311 311 310 309 307 310 308 304 302 300 301 303 303 304 305 306 308 308 308 313 310 303 302 299 303 296 296 310 305 291 274 234 209 225 224 230
306 308 309 309 309 309 308 307 307 305 303 303 304 305 303 301 301 302 307 302 301 302 304 306 307 311 321 317 316 319 330 346 325 324 324 321 44 105 119 170 195 206 190
305 304 304 304 307 308 309 309 307 302 300 299 300 302 303 303 302 303 304 301 299 302 299 298 305 316 321 327 336 46 71 27 8 33 44 69 75 90 112 152 154 154 146
Wind_Speed_850mb
43 42 46 46 48 48 56 60 60 61 68 72 74 79 77 72 71 70 69 68 64 62 63 62 61 60 59 60 60 65 69 68 66 59 60 62 63 67 66 64 66 67 66
29 22 18 35 46 43 45 51 57 61 64 70 73 79 78 79 74 73 73 73 71 71 69 69 69 67 69 66 66 72 73 74 75 74 70 59 71 80 75 77 76 72 75
15 10 6 2 10 30 38 41 44 55 65 69 75 80 84 85 83 82 81 81 79 78 77 76 73 74 75 80 77 77 80 81 79 84 74 27 40 55 62 73 84 85 85
31 29 27 27 25 17 6 21 33 40 47 60 75 79 82 85 78 79 79 82 83 83 83 82 81 79 77 77 78 79 84 90 88 88 91 91 97 57 51 60 62 81 89
44 43 39 36 33 28 23 20 11 9 22 37 50 64 75 81 82 82 81 79 78 77 81 81 79 81 79 81 82 84 89 92 93 91 94 97 99 104 96 70 71 76 76
64 66 62 58 59 54 49 41 32 22 15 11 17 32 45 56 67 74 78 78 77 75 71 69 73 78 81 84 89 89 92 90 91 107 93 100 96 98 105 106 105 120 105
57 58 54 51 49 50 50 51 50 46 38 26 17 17 23 33 45 53 61 66 69 72 71 67 68 75 78 78 80 85 88 91 95 97 112 108 104 93 110 91 91 100 94
45 44 44 42 42 39 37 38 39 38 37 37 34 27 23 28 35 42 48 54 59 61 60 62 63 66 70 74 78 87 86 89 93 96 101 102 111 107 108 111 93 94 96
36 36 35 35 35 35 36 37 34 32 32 30 30 29 26 23 24 28 36 42 45 49 51 53 57 59 63 67 71 80 88 92 95 98 97 102 106 104 107 107 106 105 82
31 30 26 26 28 28 28 27 30 32 31 30 30 32 32 31 27 24 23 28 32 37 41 45 50 53 57 61 67 73 79 86 92 96 97 100 100 102 101 106 105 105 111
22 24 25 27 28 26 25 24 24 25 27 29 32 33 34 36 38 39 40 42 43 44 46 48 50 53 56 59 64 72 77 84 87 91 96 100 98 100 98 95 100 106 102
17 18 20 24 28 31 31 33 32 34 38 39 39 40 41 43 45 47 49 52 54 54 56 59 62 64 66 66 69 72 76 81 86 88 90 95 91 91 88 95 104 100 100
16 18 20 25 27 29 31 35 39 44 48 52 54 54 54 51 48 47 50 56 63 66 68 70 72 73 71 73 75 78 81 83 84 84 88 87 84 88 88 91 95 97 92
16 18 21 25 29 33 37 41 46 49 52 54 56 58 59 58 57 55 54 55 56 61 65 70 75 76 78 79 78 79 80 82 84 84 84 83 82 85 84 84 85 86 90
15 19 22 25 28 32 37 43 48 53 55 56 58 61 63 63 63 61 58 55 56 58 59 61 63 69 75 78 79 79 81 82 83 83 82 80 80 82 78 79 80 83 89
18 21 26 33 42 47 48 47 49 52 57 60 63 66 69 71 71 72 72 70 65 63 64 63 64 67 68 69 71 74 78 80 82 83 80 77 75 74 73 75 76 84 81
16 22 28 31 34 38 43 46 50 54 57 61 64 66 70 73 75 78 78 76 75 74 72 68 68 70 67 65 66 69 74 78 79 78 77 77 76 71 72 73 74 81 81
12 17 22 24 29 35 40 44 48 53 58 63 67 71 76 78 80 82 83 82 82 78 76 77 75 75 75 76 73 65 66 72 77 76 74 72 73 69 63 66 72 74 76
11 17 21 26 30 38 42 46 48 52 58 62 65 69 74 78 80 81 82 82 84 83 79 75 76 76 74 69 71 72 69 68 69 67 65 68 69 67 60 67 68 67 66
18 24 29 34 40 46 54 57 59 61 64 67 70 72 74 77 80 81 81 78 76 79 80 84 80 77 77 70 66 62 61 67 68 65 61 60 62 63 58 57 55 54 51
27 34 40 46 52 57 62 63 64 65 69 72 75 75 77 79 80 82 80 78 77 78 78 79 77 74 69 68 60 55 56 57 61 60 56 52 52 53 47 38 41 38 34
36 44 53 59 61 61 65 70 71 71 74 75 77 76 76 78 78 78 79 80 82 82 81 79 77 69 64 64 60 48 42 45 52 49 47 43 41 37 29 22 32 30 31
45 52 60 69 71 69 68 72 71 74 77 79 80 78 78 76 75 75 78 81 80 78 80 78 78 74 61 54 50 46 43 42 40 32 30 33 29 24 21 18 21 22 26
57 63 69 74 79 74 72 71 75 78 82 85 85 82 82 81 79 75 73 76 76 75 73 70 68 61 52 45 41 37 32 22 16 17 25 25 17 12 10 11 14 17 18
63 67 71 76 79 80 83 84 82 84 88 89 87 86 82 80 81 82 75 71 67 64 63 56 49 44 35 31 24 18 10 7 11 20 17 7 3 7 7 11 11 15 13
65 71 76 79 79 79 80 80 79 83 85 88 87 84 82 80 79 78 75 60 57 49 36 33 30 26 26 19 7 7 8 8 13 14 13 13 14 9 7 11 6 5 6
Wind_Direction_850mb
281 275 260 250 249 250 252 251 252 250 247 247 247 247 249 252 255 258 262 265 264 261 259 261 259 256 258 261 262 258 258 259 257 257 257 256 256 255 257 260 259 256 255
300 295 275 243 243 247 248 250 250 252 252 250 252 251 254 256 259 261 263 265 267 266 264 262 262 263 262 260 263 261 264 264 258 257 252 249 253 256 258 258 259 262 260
18 55 64 95 228 236 243 247 250 249 252 253 252 253 253 256 258 258 260 262 264 266 266 265 265 265 264 262 264 264 263 262 261 258 255 252 251 258 263 264 258 257 255
65 73 70 66 58 48 299 258 254 252 253 252 253 255 257 258 264 266 268 267 267 268 267 268 267 266 265 267 269 268 269 262 261 255 255 262 258 261 270 265 266 260 255
71 70 68 64 58 53 48 45 28 294 267 259 257 257 259 263 266 268 270 271 272 272 270 271 273 273 273 272 270 270 268 266 261 266 264 258 257 258 257 265 266 260 263
80 79 77 74 69 65 60 54 48 42 25 340 288 272 266 266 268 270 272 275 276 276 274 271 272 273 273 271 271 270 270 272 268 275 262 262 264 265 261 261 279 266 269
71 68 64 63 62 60 58 56 52 48 42 33 10 324 292 275 273 273 274 275 277 277 278 277 273 270 271 271 271 272 273 273 272 272 266 266 273 274 267 262 282 268 277
66 60 55 51 51 45 43 41 39 39 36 32 25 8 336 308 293 286 282 279 278 279 278 277 273 271 271 270 268 268 269 269 270 269 272 272 273 269 273 265 274 267 275
62 59 53 41 33 26 20 14 17 17 14 16 14 11 1 345 322 301 290 288 287 287 283 278 275 271 268 266 265 263 265 267 269 270 271 272 272 272 274 273 274 269 270
64 59 44 33 24 13 13 11 12 8 6 2 355 350 347 343 334 325 315 306 304 298 292 286 282 277 273 270 268 266 265 265 267 269 270 271 271 274 273 277 276 272 271
53 42 35 30 31 29 24 22 15 8 2 358 353 344 337 332 329 324 315 307 303 301 299 297 292 287 282 277 273 271 271 269 269 268 270 271 271 271 274 276 275 272 270
61 45 39 39 33 31 29 27 25 17 15 9 2 353 342 334 327 322 318 312 307 301 298 296 295 294 293 291 287 283 278 274 273 274 273 272 274 275 274 275 275 272 275
74 59 41 30 21 16 15 12 7 2 357 352 347 343 339 335 330 321 312 307 305 304 302 299 297 294 292 290 290 288 284 279 276 273 272 271 272 271 270 271 272 274 277
64 46 31 20 9 1 357 355 353 350 346 344 341 338 338 338 335 330 324 317 309 304 301 300 298 297 295 293 291 288 286 283 280 278 275 275 272 272 273 273 273 274 273
45 24 12 3 354 347 345 343 342 341 338 337 335 333 331 330 329 328 326 322 317 311 307 305 302 300 297 295 293 290 288 284 282 280 279 277 275 275 275 274 273 272 274
31 14 4 355 353 351 346 342 336 333 331 329 328 326 325 325 325 323 321 321 321 318 313 309 306 303 300 299 295 290 286 284 281 279 278 277 277 275 274 273 273 272 271
17 3 0 355 348 341 337 337 333 330 328 326 325 324 322 321 319 318 318 318 316 314 312 311 311 309 307 302 298 294 287 283 280 279 279 277 276 275 275 273 270 269 269
17 1 351 343 336 331 329 329 328 326 323 321 319 320 319 318 317 316 315 315 314 314 313 311 308 304 304 305 303 296 288 284 281 280 279 278 281 281 279 275 269 268 269
351 347 341 338 335 331 327 325 323 321 319 317 317 317 317 316 316 316 316 314 312 312 312 311 310 310 309 306 303 299 292 287 285 284 282 282 282 282 281 276 272 270 269
312 316 321 325 328 327 325 322 320 318 314 312 310 310 311 311 311 311 311 312 311 310 312 313 314 312 310 308 303 297 293 292 290 288 286 285 283 281 277 275 273 270 271
307 314 317 320 322 321 318 315 313 313 310 308 306 306 308 309 310 308 308 309 308 308 308 307 309 311 312 309 306 302 297 294 290 292 295 288 282 280 278 274 267 267 273
308 312 312 313 316 318 316 316 316 313 311 310 309 308 305 305 308 308 307 308 308 307 307 307 307 310 312 310 307 302 296 291 289 294 292 291 286 277 270 258 253 259 265
307 307 308 309 311 315 314 312 314 311 310 311 310 308 305 303 303 303 304 306 308 308 308 310 310 310 311 309 304 305 300 292 287 289 291 297 288 274 248 243 246 243 241
305 307 309 310 311 314 312 311 311 310 309 307 310 308 304 302 300 301 303 303 304 305 306 308 308 308 313 310 303 302 299 303 296 296 310 305 291 274 234 209 225 224 230
306 308 309 309 309 309 308 307 307 305 303 303 304 305 303 301 301 302 307 302 301 302 304 306 307 311 321 317 316 319 330 346 325 324 324 321 44 105 119 170 195 206 190
305 304 304 304 307 308 309 309 307 302 300 299 300 302 303 303 302 303 304 301 299 302 299 298 305 316 321 327 336 46 71 27 8 33 44 69 75 90 112 152 154 154 146